Lexington Weather

Lexington, Massachusetts, USA

67°F
9/23/2021 4:10am 
  • Lexington Conditions: Mostly cloudy
  • Temperature: 66.6°F / 19.2°CWarmer 0.4°F than last hour.
  • Dew Point: 65.3°FIncreased 0.4°Fsince last hour.
  • Relative Humidity: 96
  • Wind: Calm, 10-min avg: Calm, gust: None
  • Barometer: 30.04 in Steady
  • Visibility: 10 miles
  • Rain Today: 0.00 in
  •   

Regional Weather Roundup
for Boston / Norton, MA

        
000
ASUS41 KBOX 211404
RWRBOX

REGIONAL WEATHER ROUNDUP
NATIONAL WEATHER SERVICE BOSTON/NORTON MA
1000 AM EDT TUE SEP 21 2021

NOTE:  "FAIR" INDICATES FEW OR NO CLOUDS BELOW 12,000 FEET WITH NO 
SIGNIFICANT WEATHER AND/OR OBSTRUCTIONS TO VISIBILITY.

MAZALL-211500-
EASTERN MASSACHUSETTS
  
CITY           SKY/WX    TMP DP  RH WIND       PRES   REMARKS
BOSTON         PTSUNNY   67  58  72 E7        30.43S                  
BEVERLY        MOSUNNY   65  60  84 E5        30.42S                  
LAWRENCE       MOSUNNY   66  58  75 VRB6      30.45S                  
BEDFORD        MOSUNNY   64  58  80 E3        30.42S                  
BLUE HILL      NOT AVBL                                               
NORWOOD        CLOUDY    67  59  75 VRB3      30.42S                  
MARSHFIELD     CLOUDY    68  61  77 E7        30.42S                  
PLYMOUTH       MOSUNNY   68  61  78 SE5       30.42R                  
TAUNTON        MOSUNNY   67  60  78 CALM      30.42S                  
NEW BEDFORD    CLOUDY    69  62  78 E5        30.41R                  
$$

MAZALL-211500-
CAPE COD AND THE ISLANDS
  
CITY           SKY/WX    TMP DP  RH WIND       PRES   REMARKS
FALMOUTH       SUNNY     70  61  73 E9        30.42R                  
HYANNIS        SUNNY     70  62  76 E8        30.41R                  
CHATHAM        SUNNY     69  61  75 E10       30.43R                  
PROVINCETOWN   PTSUNNY   70  62  76 SE9       30.43R                  
NANTUCKET      MOSUNNY   72  62  71 E13       30.41R                  
MARTHAS VNYRD  SUNNY     72  63  73 SE13      30.41R                  
$$
 
MAZALL-211500-
CENTRAL AND WESTERN MASSACHUSETTS
  
CITY           SKY/WX    TMP DP  RH WIND       PRES   REMARKS
WORCESTER      PTSUNNY   61  54  77 E6        30.43R                  
FITCHBURG      SUNNY     61  52  72 CALM      30.44S                  
ORANGE         SUNNY     63  54  72 VRB5      30.42S                  
SPRINGFIELD    MOSUNNY   63  54  71 S3        30.40S                  
WESTFIELD      SUNNY     61  57  87 CALM      30.41S                  
NORTH ADAMS    SUNNY     65  52  62 SE15G21   30.39R                  
PITTSFIELD     PTSUNNY   62  55  77 SW7       30.39R                  
$$
 
RIZALL-211500-
RHODE ISLAND
  
CITY           SKY/WX    TMP DP  RH WIND       PRES   REMARKS
PROVIDENCE     PTSUNNY   65  58  78 NE3       30.42S                  
NEWPORT        MOSUNNY   67  61  81 E6        30.41R                  
SMITHFIELD     CLOUDY    64  59  83 VRB5      30.42S                  
WESTERLY       SUNNY     66  61  84 NE7       30.40R                  
$$
 
CTZALL-211500-
CONNECTICUT
  
CITY           SKY/WX    TMP DP  RH WIND       PRES   REMARKS
BRADLEY INTL   MOSUNNY   63  54  72 CALM      30.41S                  
HARTFORD       SUNNY     65  55  70 CALM      30.40S                  
BRIDGEPORT     CLOUDY    68  57  68 NE9       30.38S                  
DANBURY        MOSUNNY   66  55  67 E5        30.40S                  
GROTON         PTSUNNY   66  60  81 NE6       30.39S                  
NEW HAVEN      SUNNY     70  58  65 NE6       30.39R                  
CHESTER        FAIR      64  57  77 NE6       30.40S                  
MERIDEN        SUNNY     65  54  67 NW5       30.40S                  
WILLIMANTIC    PTSUNNY   63  56  78 CALM      30.41S                  
OXFORD         SUNNY     63  55  77 E6        30.41R                  
$$

MEZ002-015-021-024-NHZ003-005-008-011-012-014-VTZ005-008-211500-
NORTHERN NEW ENGLAND
  
CITY           SKY/WX    TMP DP  RH WIND       PRES   REMARKS
PORTLAND ME    MOSUNNY   64  55  72 SW7       30.44S                  
BANGOR ME      MOSUNNY   62  56  80 S10       30.45R                  
CONCORD NH     MOSUNNY   56  54  93 CALM      30.43F                  
MANCHESTER NH  MOSUNNY   62  54  74 CALM      30.41S                  
NASHUA NH      MOSUNNY   59  57  93 CALM      30.44S                  
PORTSMOUTH NH  SUNNY     65  55  69 W3        30.44S                  
JAFFREY NH     SUNNY     63  50  62 VRB3      30.42S                  
KEENE NH       SUNNY     62  54  74 VRB3      30.41F                  
BURLINGTON VT  MOSUNNY   67  55  65 S14G29    30.32F                  
MT. WASHINGTON PTSUNNY   50   3  14 SW18G30     N/A                   
$$

NYZ052-076-211500-
EASTERN NEW YORK
  
CITY           SKY/WX    TMP DP  RH WIND       PRES   REMARKS
ALBANY         PTSUNNY   62  56  80 SE9       30.37S                  
NEW YORK CITY  PTSUNNY   71  56  58 E8        30.35S                  
$$
 
ANZALL-211500-
MARINE OBSERVATIONS
  
STATION/POSITION TIME  TEMP    WIND        PRES    VSBY  WAVE
                       AIR SEA DIR/SP/G                  HT/PER
                 (UTC) (F)     (DEG/KT/KT) (MB)    (MI)  (FT/S)
BOSTON BUOY      1340      64  120/  6/  8 1030.7R
BUZZARDS BAY     1300           90/  6/  7 1030.5R
NANTUCKET SOUND  1340   69 71  120/ 14/ 16 1029.8R
MASS BAY-STELLWA 1304   65     150/  6/  8 1030.2R  1 7/8  3/ 8
ISLE OF SHOALS   1300   60      10/  4/  5 1030.1R
S OF BLOCK IS    1326      70                N/A           3/17
$$

......................KEY.........................
  SKY/WX - SKY CONDITION/PRESENT WEATHER
  TMP    - TEMPERATURE IN FAHRENHEIT
  DWPT   - DEWPOINT IN FAHRENHEIT
  RH     - RELATIVE HUMIDITY IN PERCENT
  WIND   - DIRECTION AND SPEED IN MPH
  PRES   - MEAN SEA LEVEL PRESSURE IN INCHES OF HG
  WCI    - WIND CHILL INDEX
  VSB    - VISIBILITY IN MILES
  HX     - HEAT INDEX
  TC     - TEMPERATURE IN CELSIUS
  VRB    - VARIABLE WIND DIRECTION
  N/A    - NOT AVAILABLE
  
      

Other recent Regional Weather Roundups

Thu Sep 23, 3:04am

Thu Sep 23, 2:04am

Thu Sep 23, 1:04am

Thu Sep 23, 12:04am

Wed Sep 22, 11:04pm

Wed Sep 22, 10:04pm

Wed Sep 22, 9:04pm

Wed Sep 22, 8:04pm

Wed Sep 22, 7:04pm

Wed Sep 22, 6:04pm

Wed Sep 22, 5:04pm

Wed Sep 22, 4:04pm

Wed Sep 22, 3:04pm

Wed Sep 22, 2:04pm

Wed Sep 22, 1:04pm

Wed Sep 22, 12:05pm

Wed Sep 22, 11:04am

Wed Sep 22, 10:04am

Wed Sep 22, 9:04am

Wed Sep 22, 8:04am

Wed Sep 22, 7:04am

Wed Sep 22, 6:04am

Wed Sep 22, 5:04am

Wed Sep 22, 4:04am

Wed Sep 22, 3:04am

Wed Sep 22, 2:04am

Wed Sep 22, 1:04am

Wed Sep 22, 12:04am

Tue Sep 21, 11:04pm

Tue Sep 21, 10:04pm

Tue Sep 21, 9:04pm

Tue Sep 21, 8:04pm

Tue Sep 21, 7:04pm

Tue Sep 21, 6:04pm

Tue Sep 21, 5:04pm

Tue Sep 21, 4:04pm

Tue Sep 21, 3:04pm

Tue Sep 21, 2:04pm

Tue Sep 21, 1:04pm

Tue Sep 21, 12:04pm

Tue Sep 21, 11:04am

Tue Sep 21, 9:04am

Tue Sep 21, 8:04am

Tue Sep 21, 7:04am

Tue Sep 21, 6:04am

Tue Sep 21, 5:04am

Tue Sep 21, 4:04am

Tue Sep 21, 3:04am

Tue Sep 21, 2:04am

Tue Sep 21, 1:04am

Tue Sep 21, 12:04am

Mon Sep 20, 11:04pm

Mon Sep 20, 10:04pm

Mon Sep 20, 9:04pm

Mon Sep 20, 8:04pm

Mon Sep 20, 7:04pm

Mon Sep 20, 6:04pm

Mon Sep 20, 5:04pm

Mon Sep 20, 4:04pm

Mon Sep 20, 3:04pm

Mon Sep 20, 2:04pm

Mon Sep 20, 1:04pm

Mon Sep 20, 12:04pm

Mon Sep 20, 11:04am

Mon Sep 20, 10:04am

Mon Sep 20, 9:04am

Mon Sep 20, 7:04am

Mon Sep 20, 6:04am

Mon Sep 20, 5:04am

Mon Sep 20, 4:04am

Mon Sep 20, 3:04am

Mon Sep 20, 2:04am

Mon Sep 20, 1:04am

Mon Sep 20, 12:04am

Sun Sep 19, 11:04pm

Sun Sep 19, 10:04pm

Sun Sep 19, 9:04pm

Sun Sep 19, 8:04pm

Sun Sep 19, 7:04pm

Sun Sep 19, 6:04pm

Sun Sep 19, 5:04pm

Sun Sep 19, 4:04pm

Sun Sep 19, 3:04pm

Sun Sep 19, 2:05pm

Sun Sep 19, 1:04pm

Sun Sep 19, 12:04pm

Sun Sep 19, 11:04am

Sun Sep 19, 10:05am

Sun Sep 19, 9:04am

Sun Sep 19, 8:04am

Sun Sep 19, 7:04am

Sun Sep 19, 6:04am

Sun Sep 19, 5:04am

Sun Sep 19, 4:04am

Sun Sep 19, 3:04am

Sun Sep 19, 2:04am

Sun Sep 19, 1:04am

Sun Sep 19, 12:04am

Sat Sep 18, 11:05pm

Sat Sep 18, 10:04pm

Sat Sep 18, 9:04pm

Sat Sep 18, 8:04pm

Sat Sep 18, 7:04pm

Sat Sep 18, 6:04pm

Sat Sep 18, 5:04pm

Sat Sep 18, 4:04pm

Sat Sep 18, 3:04pm

Sat Sep 18, 2:04pm

Sat Sep 18, 1:04pm

Sat Sep 18, 12:04pm

Sat Sep 18, 11:04am

Sat Sep 18, 10:04am

Sat Sep 18, 9:04am

Sat Sep 18, 8:04am

Sat Sep 18, 7:04am

Sat Sep 18, 6:04am

Sat Sep 18, 5:04am

Sat Sep 18, 4:04am

Sat Sep 18, 3:04am

Sat Sep 18, 2:04am

Sat Sep 18, 1:04am

Sat Sep 18, 12:04am

Fri Sep 17, 11:04pm

Fri Sep 17, 10:04pm

Fri Sep 17, 9:04pm

Fri Sep 17, 8:04pm

Fri Sep 17, 7:04pm

Fri Sep 17, 6:04pm

Fri Sep 17, 5:04pm

Fri Sep 17, 4:04pm

Fri Sep 17, 3:04pm

Fri Sep 17, 2:04pm

Fri Sep 17, 1:04pm

Fri Sep 17, 12:05pm

Fri Sep 17, 11:04am

Fri Sep 17, 10:04am

Fri Sep 17, 9:04am

Fri Sep 17, 8:04am

Fri Sep 17, 7:04am

Fri Sep 17, 6:04am

Fri Sep 17, 5:04am

Fri Sep 17, 4:04am

Fri Sep 17, 3:04am

Fri Sep 17, 2:04am

Fri Sep 17, 1:04am

Fri Sep 17, 12:04am

Thu Sep 16, 11:04pm

Thu Sep 16, 10:04pm

Thu Sep 16, 9:04pm

Thu Sep 16, 8:04pm

Thu Sep 16, 7:04pm

Thu Sep 16, 6:04pm

Thu Sep 16, 5:04pm

Thu Sep 16, 4:04pm

Thu Sep 16, 3:04pm

Thu Sep 16, 2:04pm

Thu Sep 16, 1:05pm

Thu Sep 16, 12:04pm

Thu Sep 16, 11:05am

Thu Sep 16, 10:05am

Thu Sep 16, 9:04am

Thu Sep 16, 8:04am

Thu Sep 16, 7:04am

Thu Sep 16, 6:04am

Thu Sep 16, 5:04am

Thu Sep 16, 4:04am

Meta data:

ID: b947aaa9-82ed-47bb-9e64-5f6401bc5f15
Link: https://api.weather.gov/products/b947aaa9-82ed-47bb-9e64-5f6401bc5f15